Miscellaneous Local Product
Issued by NWS North Platte, NE

Home | Current Version | Previous Version | Graphics & Text | Print | Product List | Glossary On
Versions: 1 2 3 4 5 6 7 8 9 10 11 12 13 14 15 16 17 18 19 20 21 22 23 24 25 26 27 28 29 30 31 32 33 34 35 36 37 38 39 40 41 42 43 44 45 46 47 48 49 50
969
AXUS43 KLBF 251410
MISLBF


WESTERN AND NORTH CENTRAL NEBRASKA HOURLY WEATHER ROUNDUP
NATIONAL WEATHER SERVICE NORTH PLATTE NE
900 AM CDT WED MAY 25 2016

NOTE: "FAIR" INDICATES FEW OR NO CLOUDS BELOW 12,000 FEET WITH NO
SIGNIFICANT WEATHER AND/OR OBSTRUCTIONS TO VISIBILITY.

NOTE: STATIONS NOT REPORTING VARIABLES SUCH AS SKY/WEATHER OR
PRESSURE ARE PROVIDED BY RAWS AND APRS NETWORKS AND ARE NOT UNDER
NATIONAL WEATHER SERVICE QUALITY CONTROL.

...OBSERVATIONS IN AND NEAR THE EASTERN PANHANDLE OF NEBRASKA...

CITY           SKY/WX    TMP DP  RH WIND       PRES   REMARKS
PINE RIDGE     SUNNY     54  49  83 SW15      29.88S
CHADRON        SUNNY     54  32  43 SW7       29.89S
ALLIANCE       PTSUNNY   53  50  89 SW12      29.93R
SIDNEY         MOSUNNY   52  51  97 W9        29.98R
CRESCENT LAKE    N/A     53  52  98 W10         N/A
BIG SPRINGS      N/A     54  53  95 W5          N/A
$$

...OBSERVATIONS IN NORTHERN NEBRASKA AND FAR SOUTHERN SOUTH DAKOTA...

CITY           SKY/WX    TMP DP  RH WIND       PRES   REMARKS
WINNER         CLOUDY    62  56  80 W9        29.81S
VALENTINE      MOSUNNY   60  54  80 W14       29.84R
THEDFORD       SUNNY     62  57  83 SW13G20   29.88R
AINSWORTH      MOSUNNY   61  56  85 SW6       29.82R
O`NEILL        MOSUNNY   63  59  86 SW10      29.83F
ORD            SUNNY     63  57  81 W10       29.85R
BROKEN BOW     SUNNY     66  57  72 S8        29.87F
BUTTE            N/A     62  58  88 SW9         N/A
CHAMBERS         N/A     66  60  80 S3          N/A
EWING            N/A     66  61  85 SW10G17     N/A
$$

...OBSERVATIONS IN SOUTHWEST NEBRASKA AND FAR NORTHEAST COLORADO...

CITY           SKY/WX    TMP DP  RH WIND       PRES   REMARKS
WRAY           FAIR      59  54  82 CALM      29.94
HOLYOKE        FAIR      63  54  72 NW3       29.96R
IMPERIAL       SUNNY     61  52  72 SE9       29.93R
OGALLALA       PTSUNNY   59  54  84 SW6       29.94R
NORTH PLATTE   SUNNY     62  56  80 SE6       29.89R
MCCOOK         SUNNY     66  55  67 E13       29.88R
LEXINGTON      SUNNY     64  56  77 SE5       29.89S
PAXTON           N/A     56  54  92 CALM        N/A
STAPLETON        N/A     62  58  86 CALM        N/A
GOTHENBURG       N/A     60  53  77 N3          N/A
CALLAWAY         N/A     60  57  89 SE3         N/A
$$

...OBSERVATIONS IN CENTRAL LINCOLN COUNTY AREA...

CITY           SKY/WX    TMP DP  RH WIND       PRES   REMARKS
N.P. AIRPORT   SUNNY     62  56  80 SE6       29.89R
N.P. DOWNTOWN    N/A     64  57  79 CALM        N/A
N.P. SOUTHEAST   N/A     63  57  81 S3          N/A
N.P. HILLCREST   N/A     64  57  79 S3          N/A
$$

...SOME OBSERVATIONS FROM AROUND THE REGION...

CITY           SKY/WX    TMP DP  RH WIND       PRES   REMARKS
DENVER         MOSUNNY   55  41  59 NW3       30.02R
LARAMIE        SUNNY     47  33  58 SW17G24   30.04R
CHEYENNE       SUNNY     54  37  52 SW10      30.01S
SCOTTSBLUFF    SUNNY     55  48  77 VRB5      29.94R
RAPID CITY     SUNNY     57  50  77 S6        29.85F
BISMARCK       PTSUNNY   61  55  81 N3        29.81F
PIERRE         MOSUNNY   60  56  86 SW14      29.78R
SIOUX FALLS    CLOUDY    63  59  87 S7        29.79F
OMAHA          CLOUDY    67  62  84 SW3       29.89S
GRAND ISLAND   SUNNY     64  60  87 S12       29.86F
KANSAS CITY    LGT RAIN  66  60  81 N16       29.92R
WICHITA        PTSUNNY   70  65  84 S20G25    29.84S
OKLAHOMA CITY  PTSUNNY   77  72  84 S18G28    29.90R
DALLAS         CLOUDY    79  72  79 S16G24    29.96S
AMARILLO       SUNNY     71  37  28 W5        29.97R
DODGE CITY     SUNNY     68  61  78 SW10      29.83R
GOODLAND       CLOUDY    59  55  87 E15       29.92R
$$




USA.gov is the U.S. government's official web portal to all federal, state and local government web resources and services.